| time (UTC) | temp F | wind direction | speed knots | gust knots | rain 1hr in | rain 24hr in | rain mn in | humidity % | barometer mb |
| 20260508062549 | 49 | 55 | 0.0 | 2.6 | 0.00 | 0.02 | 0.00 | 69 | 1011.8 |
| 20260508062044 | 49 | 129 | 0.0 | 0.0 | 0.00 | 0.02 | 0.00 | 68 | 1011.0 |
| 20260508061546 | 49 | 129 | 0.0 | 0.0 | 0.00 | 0.02 | 0.00 | 67 | 1010.5 |
| 20260508061043 | 49 | 129 | 0.0 | 0.0 | 0.00 | 0.02 | 0.00 | 66 | 1010.4 |
| 20260508060541 | 49 | 129 | 0.0 | 0.0 | 0.00 | 0.02 | 0.00 | 67 | 1010.5 |
| 20260508060041 | 50 | 129 | 0.0 | 0.0 | 0.00 | 0.02 | 0.00 | 67 | 1010.4 |
| 20260508055540 | 50 | 129 | 0.0 | 0.0 | 0.00 | 0.02 | 0.02 | 66 | 1010.4 |
| 20260508055040 | 50 | 129 | 0.0 | 0.0 | 0.00 | 0.02 | 0.02 | 66 | 1010.4 |
| 20260508054540 | 50 | 129 | 0.0 | 0.0 | 0.00 | 0.02 | 0.02 | 66 | 1010.4 |
| 20260508054040 | 50 | 129 | 0.0 | 0.0 | 0.00 | 0.02 | 0.02 | 66 | 1010.4 |
| 20260508053540 | 50 | 129 | 0.0 | 0.0 | 0.00 | 0.02 | 0.02 | 65 | 1010.3 |
| 20260508053042 | 50 | 129 | 0.0 | 0.0 | 0.00 | 0.02 | 0.02 | 65 | 1010.5 |
| 20260508052539 | 51 | 129 | 0.0 | 9.6 | 0.00 | 0.02 | 0.02 | 64 | 1010.5 |
| 20260508052040 | 51 | 129 | 0.9 | 9.6 | 0.00 | 0.02 | 0.02 | 64 | 1010.6 |
| 20260508051542 | 51 | 129 | 1.7 | 5.2 | 0.00 | 0.02 | 0.02 | 62 | 1010.9 |
| 20260508051042 | 52 | 51 | 0.0 | 0.9 | 0.00 | 0.02 | 0.02 | 61 | 1011.1 |
| 20260508050538 | 52 | 55 | 0.0 | 0.9 | 0.00 | 0.02 | 0.02 | 60 | 1011.1 |
| 20260508050041 | 52 | 55 | 0.0 | 0.0 | 0.00 | 0.02 | 0.02 | 58 | 1010.8 |
| 20260508045538 | 52 | 55 | 0.0 | 0.0 | 0.00 | 0.02 | 0.02 | 56 | 1010.7 |
| 20260508045038 | 52 | 55 | 0.0 | 0.0 | 0.00 | 0.02 | 0.02 | 56 | 1010.5 |
| 20260508044538 | 53 | 55 | 0.0 | 0.0 | 0.00 | 0.02 | 0.02 | 55 | 1010.4 |
| 20260508044040 | 53 | 55 | 0.0 | 0.0 | 0.00 | 0.02 | 0.02 | 54 | 1010.3 |
| 20260508043537 | 53 | 55 | 0.0 | 0.0 | 0.00 | 0.02 | 0.02 | 53 | 1010.3 |
| 20260508043053 | 53 | 54 | 0.0 | 0.9 | 0.00 | 0.02 | 0.02 | 52 | 1010.4 |
| 20260508042537 | 54 | 54 | 0.0 | 0.9 | 0.00 | 0.02 | 0.02 | 52 | 1010.5 |
| 20260508042036 | 54 | 54 | 0.0 | 0.0 | 0.00 | 0.02 | 0.02 | 51 | 1010.5 |
| 20260508041546 | 54 | 54 | 0.0 | 0.0 | 0.00 | 0.02 | 0.02 | 50 | 1010.5 |
| 20260508041039 | 54 | 54 | 0.0 | 0.0 | 0.00 | 0.02 | 0.02 | 49 | 1010.6 |
| 20260508040537 | 54 | 54 | 0.0 | 0.0 | 0.00 | 0.02 | 0.02 | 48 | 1010.7 |
| 20260508040039 | 54 | 54 | 0.0 | 0.0 | 0.00 | 0.02 | 0.02 | 49 | 1010.6 |
| 20260508035537 | 55 | 54 | 0.0 | 0.0 | 0.00 | 0.02 | 0.02 | 47 | 1010.7 |
| 20260508035037 | 55 | 54 | 0.0 | 0.0 | 0.00 | 0.02 | 0.02 | 49 | 1010.7 |
| 20260508034536 | 55 | 54 | 0.0 | 0.0 | 0.00 | 0.02 | 0.02 | 50 | 1010.7 |
| 20260508034037 | 55 | 54 | 0.0 | 0.0 | 0.00 | 0.02 | 0.02 | 47 | 1010.8 |
| 20260508033536 | 55 | 54 | 0.0 | 0.0 | 0.00 | 0.02 | 0.02 | 46 | 1010.7 |
| 20260508033035 | 55 | 54 | 0.0 | 2.6 | 0.00 | 0.02 | 0.02 | 47 | 1010.8 |
| 20260508032536 | 56 | 54 | 0.0 | 3.5 | 0.00 | 0.02 | 0.02 | 46 | 1010.8 |
| 20260508032037 | 56 | 54 | 0.0 | 3.5 | 0.00 | 0.02 | 0.02 | 46 | 1010.8 |
| 20260508031535 | 56 | 39 | 0.0 | 0.0 | 0.00 | 0.02 | 0.02 | 46 | 1011.0 |
| 20260508031034 | 56 | 39 | 0.0 | 0.0 | 0.00 | 0.02 | 0.02 | 46 | 1011.3 |
| 20260508030534 | 56 | 39 | 0.0 | 0.0 | 0.00 | 0.02 | 0.02 | 45 | 1011.3 |
| 20260508030134 | 56 | 39 | 0.0 | 0.0 | 0.00 | 0.02 | 0.02 | 45 | 1011.2 |
| 20260508025534 | 56 | 39 | 0.0 | 0.0 | 0.00 | 0.02 | 0.02 | 44 | 1010.9 |
| 20260508025034 | 57 | 39 | 0.0 | 0.9 | 0.00 | 0.02 | 0.02 | 44 | 1010.8 |
| 20260508024534 | 57 | 39 | 0.0 | 0.9 | 0.00 | 0.02 | 0.02 | 43 | 1010.6 |
| 20260508024034 | 57 | 39 | 0.0 | 1.7 | 0.00 | 0.02 | 0.02 | 43 | 1010.6 |
| 20260508023534 | 57 | 21 | 0.0 | 1.7 | 0.00 | 0.02 | 0.02 | 42 | 1010.5 |
| 20260508023035 | 58 | 51 | 0.0 | 4.3 | 0.00 | 0.02 | 0.02 | 42 | 1010.4 |
| 20260508022532 | 58 | 279 | 0.0 | 7.0 | 0.00 | 0.02 | 0.02 | 43 | 1010.5 |
| 20260508022033 | 58 | 260 | 0.9 | 9.6 | 0.00 | 0.02 | 0.02 | 40 | 1010.7 |
| 20260508021536 | 58 | 272 | 0.9 | 9.6 | 0.00 | 0.02 | 0.02 | 39 | 1010.7 |
| 20260508021032 | 58 | 289 | 0.0 | 4.3 | 0.00 | 0.02 | 0.02 | 37 | 1010.4 |
| 20260508020532 | 58 | 254 | 0.0 | 0.0 | 0.00 | 0.02 | 0.02 | 43 | 1010.2 |
| 20260508020043 | 58 | 254 | 0.0 | 0.0 | 0.00 | 0.02 | 0.02 | 47 | 1010.0 |
| 20260508015531 | 58 | 254 | 0.0 | 0.0 | 0.00 | 0.02 | 0.02 | 45 | 1010.0 |
| 20260508015031 | 59 | 254 | 0.0 | 0.0 | 0.00 | 0.02 | 0.02 | 47 | 1009.9 |
| 20260508014632 | 59 | 254 | 0.0 | 0.0 | 0.00 | 0.02 | 0.02 | 45 | 1009.8 |
| 20260508014033 | 59 | 254 | 0.0 | 0.0 | 0.00 | 0.02 | 0.02 | 47 | 1009.7 |
| 20260508013532 | 60 | 254 | 0.0 | 0.0 | 0.00 | 0.02 | 0.02 | 45 | 1009.6 |
| 20260508013030 | 60 | 254 | 0.0 | 0.0 | 0.00 | 0.02 | 0.02 | 45 | 1009.6 |
| 20260508012530 | 60 | 254 | 0.0 | 0.0 | 0.00 | 0.02 | 0.02 | 43 | 1009.6 |
| 20260508012031 | 60 | 254 | 0.0 | 0.0 | 0.00 | 0.02 | 0.02 | 41 | 1009.6 |
| 20260508011531 | 60 | 254 | 0.0 | 0.0 | 0.00 | 0.02 | 0.02 | 42 | 1009.6 |
| 20260508011030 | 61 | 254 | 0.0 | 0.0 | 0.00 | 0.02 | 0.02 | 41 | 1009.6 |
| 20260508010530 | 61 | 254 | 0.0 | 0.0 | 0.00 | 0.02 | 0.02 | 35 | 1009.6 |
| 20260508010033 | 61 | 254 | 0.0 | 0.0 | 0.00 | 0.02 | 0.02 | 34 | 1009.6 |
| 20260508005529 | 61 | 254 | 0.0 | 0.0 | 0.00 | 0.02 | 0.02 | 36 | 1009.7 |
| 20260508005028 | 61 | 254 | 0.0 | 0.0 | 0.00 | 0.02 | 0.02 | 36 | 1009.7 |
| 20260508004528 | 61 | 254 | 0.0 | 0.0 | 0.00 | 0.02 | 0.02 | 36 | 1009.9 |
| 20260508004031 | 61 | 254 | 0.0 | 0.0 | 0.00 | 0.02 | 0.02 | 33 | 1010.0 |
| 20260508003530 | 61 | 254 | 0.0 | 0.0 | 0.00 | 0.02 | 0.02 | 33 | 1010.0 |
| 20260508003028 | 61 | 254 | 0.0 | 0.0 | 0.00 | 0.02 | 0.02 | 33 | 1009.9 |
| 20260508002528 | 61 | 254 | 0.0 | 0.0 | 0.00 | 0.02 | 0.02 | 32 | 1009.9 |
| 20260508002027 | 61 | 254 | 0.0 | 0.0 | 0.00 | 0.02 | 0.02 | 32 | 1010.0 |
| 20260508001546 | 61 | 254 | 0.0 | 0.0 | 0.00 | 0.02 | 0.02 | 31 | 1010.0 |
| 20260508001025 | 61 | 254 | 0.0 | 0.0 | 0.00 | 0.02 | 0.02 | 32 | 1010.1 |
| 20260508000524 | 61 | 254 | 0.0 | 0.0 | 0.00 | 0.02 | 0.02 | 32 | 1010.2 |
| 20260508000023 | 61 | 254 | 0.0 | 0.0 | 0.00 | 0.02 | 0.02 | 32 | 1010.4 |
| 20260507235523 | 61 | 254 | 0.0 | 0.0 | 0.00 | 0.02 | 0.02 | 36 | 1010.4 |
| 20260507235123 | 61 | 254 | 0.0 | 0.0 | 0.00 | 0.02 | 0.02 | 33 | 1010.4 |
| 20260507234525 | 61 | 254 | 0.0 | 0.0 | 0.00 | 0.02 | 0.02 | 31 | 1010.3 |
| 20260507234053 | 61 | 254 | 0.0 | 0.0 | 0.00 | 0.02 | 0.02 | 31 | 1010.5 |
| 20260507233522 | 62 | 254 | 0.0 | 0.0 | 0.00 | 0.02 | 0.02 | 31 | 1010.4 |
| 20260507233022 | 62 | 254 | 0.0 | 0.0 | 0.00 | 0.02 | 0.02 | 31 | 1010.6 |
| 20260507232521 | 62 | 254 | 0.0 | 0.0 | 0.00 | 0.02 | 0.02 | 30 | 1010.7 |
| 20260507232019 | 62 | 254 | 0.0 | 0.0 | 0.00 | 0.02 | 0.02 | 30 | 1010.8 |
| 20260507231524 | 63 | 254 | 0.0 | 0.0 | 0.00 | 0.02 | 0.02 | 29 | 1010.8 |
| 20260507231018 | 63 | 254 | 0.0 | 0.0 | 0.00 | 0.02 | 0.02 | 29 | 1010.9 |
| 20260507230517 | 63 | 254 | 0.0 | 0.0 | 0.00 | 0.02 | 0.02 | 30 | 1010.9 |
| 20260507230017 | 64 | 254 | 0.0 | 2.6 | 0.00 | 0.02 | 0.02 | 27 | 1011.0 |
| 20260507225520 | 65 | 254 | 0.0 | 2.6 | 0.00 | 0.05 | 0.02 | 28 | 1011.0 |
| 20260507225018 | 65 | 254 | 0.0 | 2.6 | 0.00 | 0.05 | 0.02 | 29 | 1011.1 |
| 20260507224516 | 65 | 254 | 0.0 | 3.5 | 0.00 | 0.05 | 0.02 | 28 | 1011.1 |
| 20260507224015 | 66 | 255 | 0.0 | 7.8 | 0.00 | 0.05 | 0.02 | 27 | 1011.2 |
| 20260507223517 | 66 | 260 | 0.9 | 12.2 | 0.00 | 0.05 | 0.02 | 28 | 1011.3 |
| 20260507223015 | 67 | 254 | 3.5 | 11.3 | 0.00 | 0.05 | 0.02 | 28 | 1011.3 |
| 20260507222514 | 67 | 249 | 0.9 | 10.4 | 0.00 | 0.05 | 0.02 | 30 | 1011.4 |
| 20260507222012 | 67 | 254 | 0.0 | 10.4 | 0.00 | 0.05 | 0.02 | 27 | 1011.7 |
| 20260507221511 | 67 | 252 | 0.9 | 16.5 | 0.00 | 0.05 | 0.02 | 29 | 1011.7 |
| 20260507221010 | 68 | 262 | 3.5 | 16.5 | 0.00 | 0.05 | 0.02 | 29 | 1011.9 |
| 20260507220508 | 68 | 258 | 1.7 | 8.7 | 0.00 | 0.05 | 0.02 | 27 | 1012.0 |
| 20260507220019 | 68 | 258 | 0.0 | 7.8 | 0.00 | 0.05 | 0.02 | 28 | 1012.1 |
| 20260507215508 | 68 | 255 | 0.9 | 7.8 | 0.00 | 0.10 | 0.02 | 26 | 1012.2 |
| 20260507215009 | 69 | 257 | 0.0 | 7.0 | 0.00 | 0.10 | 0.02 | 25 | 1012.4 |
| 20260507214506 | 69 | 266 | 0.9 | 9.6 | 0.00 | 0.10 | 0.02 | 26 | 1012.5 |
| 20260507214006 | 69 | 243 | 0.9 | 11.3 | 0.00 | 0.10 | 0.02 | 26 | 1012.5 |
| 20260507213506 | 68 | 256 | 1.7 | 13.0 | 0.00 | 0.10 | 0.02 | 29 | 1012.6 |
| 20260507213007 | 67 | 248 | 0.9 | 13.0 | 0.00 | 0.10 | 0.02 | 28 | 1012.6 |
| 20260507212505 | 67 | 270 | 5.2 | 12.2 | 0.00 | 0.10 | 0.02 | 27 | 1012.7 |
| 20260507212004 | 67 | 264 | 2.6 | 12.2 | 0.00 | 0.10 | 0.02 | 27 | 1012.7 |
| 20260507211504 | 67 | 244 | 0.0 | 2.6 | 0.00 | 0.10 | 0.02 | 27 | 1012.8 |
| 20260507211003 | 67 | 231 | 0.0 | 9.6 | 0.00 | 0.10 | 0.02 | 28 | 1012.9 |
| 20260507210502 | 69 | 255 | 3.5 | 11.3 | 0.00 | 0.10 | 0.02 | 25 | 1013.0 |
| 20260507210001 | 70 | 257 | 3.5 | 13.0 | 0.00 | 0.10 | 0.02 | 25 | 1013.1 |
| 20260507205601 | 70 | 261 | 4.3 | 13.0 | 0.00 | 0.23 | 0.02 | 27 | 1013.2 |
| 20260507205101 | 70 | 254 | 1.7 | 14.8 | 0.00 | 0.23 | 0.02 | 27 | 1013.2 |
| 20260507204600 | 70 | 268 | 3.5 | 14.8 | 0.00 | 0.23 | 0.02 | 28 | 1013.4 |
| 20260507204058 | 70 | 239 | 2.6 | 13.0 | 0.00 | 0.23 | 0.02 | 28 | 1013.4 |
| 20260507203557 | 70 | 260 | 0.0 | 1.7 | 0.00 | 0.23 | 0.02 | 29 | 1013.6 |
| 20260507203057 | 69 | 264 | 0.0 | 13.9 | 0.00 | 0.23 | 0.02 | 27 | 1013.6 |
| 20260507202557 | 69 | 264 | 1.7 | 13.9 | 0.00 | 0.23 | 0.02 | 26 | 1013.8 |
| 20260507202054 | 69 | 276 | 1.7 | 13.0 | 0.00 | 0.23 | 0.02 | 29 | 1013.9 |
| 20260507201558 | 68 | 252 | 0.0 | 13.9 | 0.00 | 0.23 | 0.02 | 27 | 1014.1 |
| 20260507201051 | 68 | 277 | 3.5 | 13.9 | 0.00 | 0.23 | 0.02 | 31 | 1014.2 |
| 20260507200551 | 67 | 258 | 1.7 | 19.1 | 0.00 | 0.23 | 0.02 | 28 | 1014.3 |
| 20260507200049 | 67 | 249 | 3.5 | 19.1 | 0.00 | 0.23 | 0.02 | 27 | 1014.5 |
| 20260507195549 | 67 | 263 | 0.0 | 11.3 | 0.00 | 0.36 | 0.02 | 28 | 1014.5 |
| 20260507195048 | 67 | 264 | 3.5 | 11.3 | 0.00 | 0.36 | 0.02 | 28 | 1014.7 |
| 20260507194548 | 68 | 250 | 1.7 | 16.5 | 0.00 | 0.36 | 0.02 | 28 | 1014.7 |
| 20260507194047 | 68 | 264 | 1.7 | 16.5 | 0.00 | 0.36 | 0.02 | 27 | 1014.8 |
| 20260507193546 | 68 | 258 | 1.7 | 11.3 | 0.00 | 0.36 | 0.02 | 31 | 1014.9 |
| 20260507193050 | 67 | 260 | 2.6 | 11.3 | 0.00 | 0.36 | 0.02 | 30 | 1015.0 |
| 20260507192543 | 67 | 252 | 3.5 | 11.3 | 0.00 | 0.36 | 0.02 | 30 | 1015.0 |
| 20260507192044 | 67 | 262 | 1.7 | 13.0 | 0.00 | 0.36 | 0.02 | 28 | 1015.2 |
| 20260507191550 | 67 | 243 | 3.5 | 13.0 | 0.00 | 0.36 | 0.02 | 28 | 1015.3 |
| 20260507191041 | 67 | 221 | 0.9 | 8.7 | 0.00 | 0.36 | 0.02 | 31 | 1015.3 |
| 20260507190539 | 66 | 252 | 0.9 | 13.9 | 0.00 | 0.36 | 0.02 | 33 | 1015.6 |
| 20260507190037 | 66 | 259 | 2.6 | 13.9 | 0.00 | 0.36 | 0.02 | 32 | 1015.6 |
| 20260507185536 | 66 | 242 | 4.3 | 13.9 | 0.00 | 0.41 | 0.02 | 34 | 1015.8 |
| 20260507185038 | 65 | 244 | 2.6 | 12.2 | 0.00 | 0.41 | 0.02 | 34 | 1015.9 |
| 20260507184533 | 64 | 250 | 0.9 | 9.6 | 0.00 | 0.41 | 0.02 | 34 | 1015.9 |
| 20260507184031 | 64 | 242 | 0.9 | 9.6 | 0.00 | 0.41 | 0.02 | 34 | 1016.1 |
| 20260507183530 | 63 | 247 | 1.7 | 8.7 | 0.00 | 0.41 | 0.02 | 36 | 1016.3 |
| 20260507183030 | 63 | 254 | 0.9 | 8.7 | 0.00 | 0.41 | 0.02 | 35 | 1016.4 |
| 20260507182528 | 63 | 249 | 0.0 | 9.6 | 0.00 | 0.41 | 0.02 | 40 | 1016.4 |
| 20260507182032 | 63 | 239 | 0.9 | 9.6 | 0.00 | 0.41 | 0.02 | 37 | 1016.5 |
| 20260507181527 | 63 | 244 | 2.6 | 11.3 | 0.00 | 0.41 | 0.02 | 34 | 1016.5 |
| 20260507181026 | 62 | 254 | 3.5 | 11.3 | 0.00 | 0.41 | 0.02 | 36 | 1016.6 |
| 20260507180526 | 61 | 235 | 2.6 | 10.4 | 0.00 | 0.41 | 0.02 | 37 | 1016.7 |
| 20260507180021 | 61 | 255 | 2.6 | 10.4 | 0.00 | 0.41 | 0.02 | 42 | 1016.7 |
| 20260507175520 | 60 | 249 | 1.7 | 7.0 | 0.00 | 0.46 | 0.02 | 39 | 1016.7 |
| 20260507175023 | 60 | 245 | 0.9 | 6.1 | 0.00 | 0.46 | 0.02 | 36 | 1016.7 |
| 20260507174529 | 60 | 244 | 0.0 | 6.1 | 0.00 | 0.46 | 0.02 | 38 | 1016.8 |
| 20260507174016 | 60 | 211 | 0.0 | 8.7 | 0.00 | 0.46 | 0.02 | 40 | 1016.9 |
| 20260507173515 | 59 | 239 | 0.9 | 8.7 | 0.00 | 0.46 | 0.02 | 39 | 1017.1 |
| 20260507173018 | 60 | 241 | 0.0 | 10.4 | 0.00 | 0.46 | 0.02 | 39 | 1017.1 |
| 20260507172515 | 60 | 254 | 2.6 | 10.4 | 0.00 | 0.46 | 0.02 | 40 | 1017.2 |
| 20260507172013 | 60 | 214 | 0.0 | 7.0 | 0.00 | 0.46 | 0.02 | 40 | 1017.3 |
| 20260507171516 | 59 | 235 | 0.0 | 7.0 | 0.00 | 0.46 | 0.02 | 43 | 1017.3 |
| 20260507171012 | 59 | 249 | 0.0 | 8.7 | 0.00 | 0.46 | 0.02 | 39 | 1017.5 |
| 20260507170509 | 58 | 242 | 2.6 | 8.7 | 0.00 | 0.46 | 0.02 | 41 | 1017.6 |
| 20260507170007 | 58 | 243 | 0.9 | 7.8 | 0.00 | 0.46 | 0.02 | 43 | 1017.8 |
| 20260507165505 | 56 | 229 | 0.0 | 7.8 | 0.00 | 0.50 | 0.02 | 46 | 1017.9 |
| 20260507165004 | 56 | 229 | 0.9 | 7.0 | 0.00 | 0.50 | 0.02 | 42 | 1018.1 |
| 20260507164504 | 55 | 232 | 0.0 | 0.9 | 0.00 | 0.50 | 0.02 | 45 | 1018.2 |
| 20260507164007 | 55 | 238 | 0.0 | 3.5 | 0.00 | 0.50 | 0.02 | 45 | 1018.2 |
| 20260507163503 | 55 | 235 | 0.0 | 6.1 | 0.00 | 0.50 | 0.02 | 44 | 1018.2 |
| 20260507163002 | 55 | 241 | 0.0 | 6.1 | 0.00 | 0.50 | 0.02 | 46 | 1018.3 |
| 20260507162502 | 55 | 227 | 0.0 | 2.6 | 0.00 | 0.50 | 0.02 | 43 | 1018.4 |
| 20260507162101 | 55 | 229 | 0.0 | 3.5 | 0.00 | 0.50 | 0.02 | 44 | 1018.5 |
| 20260507161600 | 55 | 231 | 0.0 | 3.5 | 0.00 | 0.50 | 0.02 | 42 | 1018.6 |
| 20260507161058 | 55 | 226 | 0.0 | 3.5 | 0.00 | 0.50 | 0.02 | 43 | 1018.8 |
| 20260507160557 | 55 | 225 | 0.0 | 0.9 | 0.00 | 0.50 | 0.02 | 44 | 1018.8 |
| 20260507160056 | 54 | 229 | 0.0 | 5.2 | 0.00 | 0.50 | 0.02 | 43 | 1018.9 |
| 20260507155553 | 54 | 229 | 0.0 | 5.2 | 0.00 | 0.52 | 0.02 | 43 | 1019.0 |
| 20260507155052 | 54 | 227 | 0.0 | 1.7 | 0.00 | 0.52 | 0.02 | 44 | 1019.0 |
| 20260507154551 | 53 | 247 | 0.0 | 0.9 | 0.00 | 0.52 | 0.02 | 45 | 1019.1 |
| 20260507154049 | 53 | 247 | 0.0 | 2.6 | 0.00 | 0.52 | 0.02 | 44 | 1019.2 |
| 20260507153549 | 52 | 247 | 0.0 | 2.6 | 0.00 | 0.52 | 0.02 | 44 | 1019.3 |
| 20260507153052 | 52 | 222 | 0.0 | 3.5 | 0.00 | 0.52 | 0.02 | 43 | 1019.3 |
| 20260507152546 | 51 | 239 | 0.0 | 3.5 | 0.00 | 0.52 | 0.02 | 44 | 1019.3 |
| 20260507152145 | 51 | 239 | 0.0 | 5.2 | 0.00 | 0.52 | 0.02 | 46 | 1019.3 |
| 20260507151544 | 51 | 239 | 0.0 | 5.2 | 0.00 | 0.52 | 0.02 | 42 | 1019.3 |
| 20260507151041 | 51 | 213 | 0.0 | 1.7 | 0.01 | 0.52 | 0.02 | 41 | 1019.5 |
| 20260507150540 | 50 | 211 | 0.0 | 1.7 | 0.01 | 0.52 | 0.02 | 42 | 1019.5 |
| 20260507150041 | 50 | 212 | 0.0 | 0.0 | 0.01 | 0.52 | 0.02 | 44 | 1019.5 |
| 20260507145537 | 50 | 211 | 0.0 | 0.0 | 0.01 | 0.52 | 0.02 | 44 | 1019.5 |
| 20260507145036 | 49 | 211 | 0.0 | 0.0 | 0.01 | 0.52 | 0.02 | 43 | 1019.5 |
| 20260507144534 | 49 | 212 | 0.0 | 0.0 | 0.01 | 0.52 | 0.02 | 46 | 1019.6 |
| 20260507144033 | 48 | 211 | 0.0 | 0.0 | 0.01 | 0.52 | 0.02 | 44 | 1019.6 |
| 20260507143533 | 48 | 213 | 0.0 | 0.0 | 0.01 | 0.52 | 0.02 | 45 | 1019.7 |
| 20260507143034 | 48 | 213 | 0.0 | 0.9 | 0.02 | 0.52 | 0.02 | 44 | 1019.6 |
| 20260507142529 | 47 | 213 | 0.0 | 0.9 | 0.02 | 0.52 | 0.02 | 45 | 1019.7 |
| 20260507142027 | 47 | 213 | 0.0 | 2.6 | 0.02 | 0.52 | 0.02 | 45 | 1019.7 |
| 20260507141525 | 47 | 213 | 0.0 | 3.5 | 0.02 | 0.52 | 0.02 | 46 | 1019.7 |
| 20260507141024 | 46 | 212 | 0.0 | 5.2 | 0.01 | 0.51 | 0.01 | 46 | 1019.8 |
| 20260507140522 | 46 | 209 | 0.0 | 4.3 | 0.01 | 0.51 | 0.01 | 49 | 1019.8 |
| 20260507140020 | 45 | 206 | 0.0 | 3.5 | 0.01 | 0.51 | 0.01 | 46 | 1019.8 |
| 20260507135522 | 45 | 206 | 0.0 | 2.6 | 0.01 | 0.51 | 0.01 | 48 | 1019.8 |
| 20260507135018 | 44 | 205 | 0.0 | 0.0 | 0.01 | 0.51 | 0.01 | 49 | 1019.8 |
| 20260507134516 | 43 | 205 | 0.0 | 0.0 | 0.01 | 0.51 | 0.01 | 49 | 1019.9 |
| 20260507134015 | 43 | 205 | 0.0 | 0.0 | 0.01 | 0.51 | 0.01 | 50 | 1019.9 |
| 20260507133513 | 42 | 205 | 0.0 | 0.0 | 0.01 | 0.51 | 0.01 | 54 | 1019.9 |
| 20260507133011 | 41 | 205 | 0.0 | 0.0 | 0.00 | 0.50 | 0.00 | 53 | 1019.9 |
| 20260507132514 | 40 | 205 | 0.0 | 0.0 | 0.00 | 0.50 | 0.00 | 54 | 1019.9 |
| 20260507132009 | 40 | 205 | 0.0 | 0.0 | 0.00 | 0.50 | 0.00 | 55 | 1020.0 |
| 20260507131510 | 39 | 205 | 0.0 | 0.0 | 0.00 | 0.50 | 0.00 | 56 | 1020.0 |
| 20260507131008 | 38 | 205 | 0.0 | 0.0 | 0.00 | 0.50 | 0.00 | 56 | 1019.9 |
| 20260507130504 | 38 | 205 | 0.0 | 0.0 | 0.00 | 0.50 | 0.00 | 57 | 1019.9 |
| 20260507130004 | 37 | 205 | 0.0 | 0.9 | 0.00 | 0.50 | 0.00 | 58 | 1019.9 |
| 20260507125502 | 36 | 205 | 0.0 | 0.9 | 0.00 | 0.50 | 0.00 | 60 | 1019.8 |
| 20260507125101 | 34 | 164 | 0.0 | 0.0 | 0.00 | 0.50 | 0.00 | 63 | 1019.8 |
| 20260507124559 | 33 | 163 | 0.0 | 0.0 | 0.00 | 0.50 | 0.00 | 67 | 1019.7 |
| 20260507124059 | 33 | 163 | 0.0 | 0.0 | 0.00 | 0.50 | 0.00 | 67 | 1019.6 |
| 20260507123558 | 33 | 162 | 0.0 | 0.0 | 0.00 | 0.50 | 0.00 | 67 | 1019.6 |
| 20260507123058 | 33 | 162 | 0.0 | 0.9 | 0.00 | 0.50 | 0.00 | 65 | 1019.4 |
| 20260507122556 | 33 | 161 | 0.0 | 0.9 | 0.00 | 0.50 | 0.00 | 67 | 1019.4 |
| 20260507122055 | 33 | 161 | 0.0 | 0.0 | 0.00 | 0.50 | 0.00 | 67 | 1019.5 |
| 20260507121606 | 33 | 161 | 0.0 | 0.0 | 0.00 | 0.50 | 0.00 | 66 | 1019.5 |
| 20260507121055 | 33 | 161 | 0.0 | 0.0 | 0.00 | 0.50 | 0.00 | 66 | 1019.5 |
| 20260507120555 | 33 | 161 | 0.0 | 0.0 | 0.00 | 0.50 | 0.00 | 66 | 1019.3 |
| 20260507120059 | 33 | 161 | 0.0 | 0.0 | 0.00 | 0.50 | 0.00 | 66 | 1019.4 |
| 20260507115554 | 33 | 161 | 0.0 | 0.9 | 0.00 | 0.50 | 0.00 | 65 | 1019.4 |
| 20260507115054 | 32 | 159 | 0.0 | 0.9 | 0.00 | 0.50 | 0.00 | 66 | 1019.4 |
| 20260507114609 | 32 | 193 | 0.0 | 0.0 | 0.00 | 0.50 | 0.00 | 66 | 1019.3 |
| 20260507114053 | 32 | 193 | 0.0 | 0.0 | 0.00 | 0.50 | 0.00 | 66 | 1019.4 |
| 20260507113552 | 32 | 193 | 0.0 | 0.0 | 0.00 | 0.50 | 0.00 | 67 | 1019.3 |
| 20260507113053 | 32 | 193 | 0.0 | 0.0 | 0.00 | 0.50 | 0.00 | 67 | 1019.3 |
| 20260507112555 | 32 | 193 | 0.0 | 0.0 | 0.00 | 0.50 | 0.00 | 66 | 1019.3 |
| 20260507112055 | 32 | 193 | 0.0 | 0.0 | 0.00 | 0.50 | 0.00 | 67 | 1019.3 |
| 20260507111554 | 32 | 193 | 0.0 | 0.0 | 0.00 | 0.50 | 0.00 | 68 | 1019.2 |
| 20260507111051 | 32 | 193 | 0.0 | 0.0 | 0.00 | 0.50 | 0.00 | 67 | 1019.2 |
| 20260507110551 | 32 | 193 | 0.0 | 0.0 | 0.00 | 0.50 | 0.00 | 68 | 1019.3 |
| 20260507110053 | 32 | 193 | 0.0 | 0.0 | 0.00 | 0.50 | 0.00 | 67 | 1019.4 |
| 20260507105549 | 32 | 193 | 0.0 | 0.0 | 0.00 | 0.50 | 0.00 | 67 | 1019.4 |
| 20260507105050 | 32 | 193 | 0.0 | 0.0 | 0.00 | 0.50 | 0.00 | 68 | 1019.4 |
| 20260507104549 | 32 | 193 | 0.0 | 0.0 | 0.00 | 0.50 | 0.00 | 67 | 1019.4 |
| 20260507104049 | 33 | 193 | 0.0 | 0.0 | 0.00 | 0.50 | 0.00 | 68 | 1019.4 |
| 20260507103549 | 33 | 193 | 0.0 | 0.0 | 0.00 | 0.50 | 0.00 | 66 | 1019.5 |
| 20260507103048 | 33 | 193 | 0.0 | 0.0 | 0.00 | 0.50 | 0.00 | 68 | 1019.4 |
| 20260507102547 | 33 | 193 | 0.0 | 0.0 | 0.00 | 0.50 | 0.00 | 68 | 1019.5 |
| 20260507102046 | 33 | 193 | 0.0 | 0.0 | 0.00 | 0.50 | 0.00 | 67 | 1019.6 |
| 20260507101546 | 33 | 193 | 0.0 | 0.0 | 0.00 | 0.50 | 0.00 | 66 | 1019.7 |
| 20260507101045 | 33 | 193 | 0.0 | 0.0 | 0.00 | 0.50 | 0.00 | 66 | 1019.7 |
| 20260507100543 | 33 | 193 | 0.0 | 0.0 | 0.00 | 0.50 | 0.00 | 65 | 1019.7 |
| 20260507100043 | 33 | 193 | 0.0 | 0.0 | 0.00 | 0.50 | 0.00 | 65 | 1019.9 |
| 20260507095543 | 34 | 193 | 0.0 | 0.0 | 0.00 | 0.50 | 0.00 | 67 | 1020.0 |
| 20260507095043 | 34 | 193 | 0.0 | 0.0 | 0.00 | 0.50 | 0.00 | 67 | 1020.0 |
| 20260507094544 | 34 | 193 | 0.0 | 0.0 | 0.00 | 0.50 | 0.00 | 65 | 1020.0 |
| 20260507094043 | 34 | 193 | 0.0 | 0.0 | 0.00 | 0.50 | 0.00 | 64 | 1020.0 |
| 20260507093542 | 34 | 193 | 0.0 | 0.9 | 0.00 | 0.50 | 0.00 | 66 | 1020.1 |
| 20260507093145 | 34 | 193 | 0.0 | 0.9 | 0.00 | 0.50 | 0.00 | 65 | 1020.1 |
| 20260507092542 | 34 | 190 | 0.0 | 0.0 | 0.00 | 0.50 | 0.00 | 64 | 1020.0 |
| 20260507092040 | 34 | 190 | 0.0 | 0.0 | 0.00 | 0.50 | 0.00 | 66 | 1020.0 |
| 20260507091541 | 34 | 190 | 0.0 | 0.0 | 0.00 | 0.50 | 0.00 | 64 | 1020.1 |
| 20260507091038 | 34 | 190 | 0.0 | 0.0 | 0.00 | 0.50 | 0.00 | 65 | 1020.1 |
| 20260507090537 | 34 | 190 | 0.0 | 0.0 | 0.00 | 0.50 | 0.00 | 65 | 1020.0 |
| 20260507090037 | 34 | 190 | 0.0 | 0.0 | 0.00 | 0.50 | 0.00 | 66 | 1019.9 |
| 20260507085533 | 34 | 190 | 0.0 | 0.0 | 0.00 | 0.50 | 0.00 | 66 | 1020.0 |
| 20260507085032 | 33 | 189 | 0.0 | 0.0 | 0.00 | 0.50 | 0.00 | 68 | 1020.0 |
| 20260507084532 | 33 | 189 | 0.0 | 0.0 | 0.00 | 0.50 | 0.00 | 69 | 1020.1 |
| 20260507084030 | 33 | 188 | 0.0 | 0.0 | 0.00 | 0.50 | 0.00 | 69 | 1020.2 |
| 20260507083529 | 33 | 188 | 0.0 | 0.9 | 0.00 | 0.50 | 0.00 | 70 | 1020.2 |
| 20260507083028 | 33 | 188 | 0.0 | 0.9 | 0.00 | 0.50 | 0.00 | 71 | 1020.2 |
| 20260507082526 | 32 | 188 | 0.0 | 0.0 | 0.00 | 0.50 | 0.00 | 74 | 1020.3 |
| 20260507082025 | 32 | 188 | 0.0 | 0.0 | 0.00 | 0.50 | 0.00 | 76 | 1020.2 |
| 20260507081538 | 32 | 188 | 0.0 | 0.0 | 0.00 | 0.50 | 0.00 | 76 | 1020.2 |
| 20260507081023 | 32 | 188 | 0.0 | 0.0 | 0.00 | 0.50 | 0.00 | 75 | 1020.1 |
| 20260507080525 | 32 | 188 | 0.0 | 0.0 | 0.00 | 0.50 | 0.00 | 75 | 1020.2 |
| 20260507080020 | 32 | 188 | 0.0 | 0.9 | 0.00 | 0.50 | 0.00 | 78 | 1020.4 |
| 20260507075521 | 32 | 188 | 0.0 | 0.9 | 0.00 | 0.50 | 0.00 | 78 | 1020.5 |
| 20260507075018 | 32 | 184 | 0.0 | 0.0 | 0.00 | 0.50 | 0.00 | 80 | 1020.6 |
| 20260507074530 | 32 | 184 | 0.0 | 0.0 | 0.00 | 0.50 | 0.00 | 81 | 1020.7 |
| 20260507074018 | 32 | 184 | 0.0 | 0.0 | 0.00 | 0.50 | 0.00 | 80 | 1020.8 |
| 20260507073517 | 31 | 184 | 0.0 | 0.0 | 0.00 | 0.50 | 0.00 | 81 | 1020.8 |
| 20260507073017 | 31 | 184 | 0.0 | 0.0 | 0.00 | 0.50 | 0.00 | 82 | 1020.8 |
| 20260507072518 | 31 | 183 | 0.0 | 0.0 | 0.00 | 0.50 | 0.00 | 82 | 1020.9 |
| 20260507072015 | 31 | 183 | 0.0 | 0.0 | 0.00 | 0.50 | 0.00 | 83 | 1020.8 |
| 20260507071517 | 31 | 183 | 0.0 | 0.0 | 0.00 | 0.50 | 0.00 | 84 | 1020.8 |
| 20260507071014 | 31 | 183 | 0.0 | 0.0 | 0.00 | 0.50 | 0.00 | 85 | 1020.7 |
| 20260507070513 | 31 | 183 | 0.0 | 0.0 | 0.00 | 0.50 | 0.00 | 85 | 1020.8 |
| 20260507070019 | 31 | 183 | 0.0 | 0.0 | 0.00 | 0.50 | 0.00 | 85 | 1020.8 |
| 20260507065512 | 31 | 183 | 0.0 | 0.0 | 0.00 | 0.50 | 0.00 | 86 | 1020.7 |
| 20260507065011 | 31 | 183 | 0.0 | 0.0 | 0.00 | 0.50 | 0.00 | 86 | 1020.8 |
| 20260507064511 | 31 | 183 | 0.0 | 0.0 | 0.00 | 0.50 | 0.00 | 86 | 1020.8 |
| 20260507064010 | 30 | 183 | 0.0 | 0.0 | 0.00 | 0.50 | 0.00 | 87 | 1021.0 |
| 20260507063509 | 30 | 183 | 0.0 | 0.0 | 0.00 | 0.50 | 0.00 | 87 | 1020.8 |
| 20260507063016 | 30 | 183 | 0.0 | 0.0 | 0.00 | 0.50 | 0.00 | 87 | 1020.7 |